Location: Gallinara
(44.0333°N, 8.2333°E)
Time: 05:57:20
(UTC+00:00)

Cosmos 1814 Rocket - Pass Details

Date: 25 September 2020
Orbit: 744 x 788 km, 74.1° (Epoch: 23 October)

Event Time Altitude Azimuth Distance (km) Brightness Sun altitude
Exits shadow 03:23:39 18° 187° (S) 1,801 5.7 -21.0°
Maximum altitude 03:27:31 68° 107° (ESE) 826 4.3 -20.3°
Drops below altitude 10° 03:32:46 10° 25° (NNE) 2,330 7.1 -19.4°
Sets 03:35:11 0° 23° (NNE) 3,268 7.9 -19.0°
